Location: Nitra
(0.0000°N, 18.0833°E)
Time: 13:49:43
(UTC+02:00)

Vanguard 2 Rocket - All Passes

Search period start: 30 March 2023 00:00
Search period end: 09 April 2023 00:00
Orbit: 555 x 3315 km, 32.9° (Epoch: 30 March)

Date Brightness Start Highest point End Pass type
(mag) Time Alt. Az. Time Alt. Az. Time Alt. Az.
30 Mar - 01:01:37 10° NW 01:16:01 55° NE 01:35:35 10° ESE visible
30 Mar - 03:16:25 10° WNW 03:34:34 70° SW 03:54:13 10° SE visible
30 Mar - 05:37:47 10° W 05:54:25 31° SSW 06:08:38 10° SSE visible
30 Mar - 08:10:03 10° SW 08:15:33 12° SSW 08:20:21 10° S daylight
30 Mar - 12:48:05 10° SSW 12:52:51 20° SSE 12:56:25 10° ESE daylight
30 Mar - 15:01:44 10° WSW 15:06:13 48° NW 15:10:00 10° NE daylight
31 Mar - 00:01:02 10° NNW 00:13:00 39° NE 00:30:10 10° E visible
31 Mar - 02:14:09 10° NW 02:30:43 88° SW 02:51:19 10° SE visible
31 Mar - 04:32:26 10° W 04:50:14 42° SSW 05:07:13 10° SSE visible
31 Mar - 07:00:19 10° WSW 07:11:19 17° SSW 07:20:29 10° SSE daylight
31 Mar - 11:46:48 10° SSW 11:51:12 15° SSE 11:54:40 10° SE daylight
31 Mar - 14:00:06 10° SW 14:05:47 73° SE 14:09:49 10° ENE daylight
31 Mar - 23:01:09 10° NNW 23:10:21 26° NE 23:23:24 10° E visible
01 Apr - 01:12:41 10° NW 01:27:14 72° NE 01:47:36 10° ESE visible
01 Apr - 03:28:32 10° WNW 03:46:05 54° SSW 04:05:10 10° SE visible
01 Apr - 05:52:14 10° WSW 06:06:53 24° SSW 06:19:34 10° SSE visible
01 Apr - 08:24:55 10° SSW 08:29:04 11° S 08:32:46 10° S daylight
01 Apr - 10:44:56 10° SSW 10:49:01 13° S 10:52:22 10° SE daylight
01 Apr - 12:58:26 10° SW 13:04:57 39° SSE 13:09:15 10° E daylight
01 Apr - 15:14:17 10° W 15:17:41 20° NW 15:20:41 10° NNE daylight
01 Apr - 22:02:24 10° N 22:07:55 15° NE 22:14:55 10° ENE visible
02 Apr - 00:11:52 10° NW 00:24:14 53° NE 00:42:53 10° ESE visible
02 Apr - 02:25:49 10° WNW 02:42:04 70° SW 03:02:27 10° SE visible
02 Apr - 04:45:54 10° W 05:02:21 32° SSW 05:18:02 10° SSE visible
02 Apr - 07:15:50 10° SW 07:24:40 15° SSW 07:32:10 10° SSE daylight
02 Apr - 09:41:52 10° SSW 09:46:10 12° S 09:49:48 10° SSE daylight
02 Apr - 11:56:34 10° SSW 12:03:36 26° SSE 12:08:17 10° E daylight
02 Apr - 14:11:45 10° WSW 14:17:16 48° NW 14:21:13 10° NE daylight
02 Apr - 23:11:41 10° NNW 23:21:45 36° NE 23:37:07 10° E visible
03 Apr - 01:23:59 10° NW 01:38:25 88° SW 01:59:02 10° SE visible
03 Apr - 03:41:13 10° W 03:57:53 42° SSW 04:15:57 10° SE visible
03 Apr - 06:07:19 10° WSW 06:19:53 19° SSW 06:30:50 10° SSE visible
03 Apr - 08:36:56 10° SSW 08:42:35 13° S 08:47:22 10° SSE daylight
03 Apr - 10:54:18 10° SSW 11:01:40 21° SSE 11:06:49 10° ESE daylight
03 Apr - 13:09:25 10° SW 13:16:41 80° SE 13:21:12 10° ENE daylight
03 Apr - 22:12:15 10° N 22:19:39 22° NE 22:30:09 10° E visible
04 Apr - 00:22:53 10° NW 00:35:20 71° NE 00:54:51 10° ESE visible
04 Apr - 02:37:53 10° WNW 02:53:38 53° SSW 03:13:17 10° SE visible
04 Apr - 05:00:07 10° WSW 05:14:57 25° SSW 05:28:59 10° SSE visible
04 Apr - 07:30:08 10° SSW 07:38:16 14° S 07:45:07 10° SSE daylight
04 Apr - 09:51:25 10° SSW 09:59:08 18° SSE 10:04:48 10° SE daylight
04 Apr - 12:07:02 10° SW 12:15:39 47° SSE 12:20:47 10° ENE daylight
04 Apr - 14:24:12 10° W 14:28:30 22° NW 14:31:53 10° NNE daylight
04 Apr - 21:14:54 10° NNE 21:17:41 11° NE 21:20:51 10° NE visible
04 Apr - 23:22:26 10° NW 23:32:50 51° NE 23:49:49 10° ESE visible
05 Apr - 01:35:37 10° WNW 01:49:47 68° SW 02:10:03 10° SE visible
05 Apr - 03:54:33 10° W 04:10:07 32° SSW 04:26:42 10° SSE visible
05 Apr - 06:22:22 10° SW 06:33:20 17° S 06:42:51 10° SSE visible
05 Apr - 08:47:36 10° SSW 08:55:52 16° S 09:02:15 10° SE daylight
05 Apr - 11:04:25 10° SW 11:14:00 33° SSE 11:19:53 10° E daylight
05 Apr - 13:21:00 10° WSW 13:28:02 50° NW 13:32:31 10° NE daylight
05 Apr - 22:22:35 10° NNW 22:30:53 33° NE 22:43:56 10° E visible
06 Apr - 00:34:10 10° NW 00:46:29 87° SW 01:06:11 10° SE visible
06 Apr - 02:50:30 10° W 03:05:34 41° SSW 03:23:58 10° SE visible
06 Apr - 05:14:53 10° WSW 05:28:04 20° SSW 05:40:24 10° SSE visible
06 Apr - 07:42:35 10° SSW 07:51:48 16° S 07:59:16 10° SE daylight
06 Apr - 10:01:25 10° SSW 10:11:45 26° SSE 10:18:28 10° ESE daylight
06 Apr - 12:18:01 10° SW 12:27:16 86° SE 12:32:34 10° ENE daylight
06 Apr - 14:38:49 10° NW 14:39:44 10° NW 14:40:37 10° NNW daylight
06 Apr - 21:23:38 10° N 21:29:15 18° NE 21:36:56 10° ENE visible
06 Apr - 23:33:24 10° NW 23:43:51 70° NE 00:01:43 10° ESE night (unlit)
07 Apr - 01:47:39 10° WNW 02:01:26 51° SSW 02:20:45 10° SE visible
07 Apr - 04:08:35 10° WSW 04:22:49 25° SSW 04:37:40 10° SSE visible
07 Apr - 06:36:22 10° SW 06:46:59 16° S 06:56:01 10° SSE daylight
07 Apr - 08:57:54 10° SSW 09:08:47 22° SSE 09:16:24 10° ESE daylight
07 Apr - 11:14:56 10° SW 11:25:57 55° SSE 11:32:09 10° ENE daylight
07 Apr - 13:33:20 10° W 13:39:07 26° NW 13:43:11 10° NNE daylight
07 Apr - 22:33:13 10° NNW 22:41:52 47° NE 22:56:37 10° ESE visible
08 Apr - 00:45:47 10° WNW 00:57:52 66° SSW 01:17:05 10° SE visible
08 Apr - 03:03:44 10° W 03:17:53 31° SSW 03:34:39 10° SSE visible
08 Apr - 05:29:33 10° SW 05:41:36 18° S 05:52:39 10° SSE visible
08 Apr - 07:53:43 10° SSW 08:05:04 20° S 08:13:36 10° SE daylight
08 Apr - 10:11:40 10° SW 10:23:58 40° SSE 10:31:13 10° E daylight
08 Apr - 12:29:30 10° WSW 12:38:30 53° NW 12:43:47 10° NE daylight
08 Apr - 21:33:40 10° NNW 21:40:23 28° NE 21:50:50 10° E visible
